Flag for Australia Weather past 2 weeks in Lord Howe Island, Lord Howe Island, Australia

Now
63 °F

Mild.


Feels Like: 63 °F
Forecast: 64 / 67 °F
Wind: 8 mph from Southwest

Location: Lord Howe Island

Current Time: Aug 30, 2014 at 6:38:47 AM

Latest Report: Aug 30, 2014 at 4:30 AM


Visibility: N/A

Pressure: 29.70 "Hg

Humidity: 81%

Dew point: 57 °F

Location of Lord Howe IslandLocation

Historic Weather in Lord Howe Island — Graph

°F

Lord Howe Island temperature yesterday

Maximum temperature yesterday: 64 °F (at 1:30 PM)
Minimum temperature yesterday: 61 °F (at 6:00 AM)
Average temperature yesterday: 62 °F

Past Weeks' High & Low Weather Summary

 TemperatureHumidityPressure
High70 °F (Aug 18, 12:00 PM)97% (Aug 16, 4:30 AM)30.40 "Hg (Aug 16, 4:30 AM)
Low53 °F (Aug 16, 4:30 AM)44% (Aug 21, 1:30 PM)29.66 "Hg (Aug 19, 3:00 AM)
Average62 °F72%30.06 "Hg
* Reported Aug 15 4:30 AM — Aug 30 4:30 AM, Lord Howe Island, Weather by CustomWeather, © 2014

Note: Actual official high and low records may vary slightly from our data, if they occured in-between our weather recording intervals... More about our weather records

Advertising

Lord Howe Island weather history for previous 24 hours

 ConditionsComfort  
Time TempWeatherWind HumidityBarometerVisibility
4:30 AM
Aug 30
63 °FMild.8 mph81%29.70 "HgN/A
3:00 AM64 °FOvercast.17 mph81%29.69 "HgN/A
1:30 AM62 °FMild.24 mph92%29.71 "HgN/A
12:00 AM62 °FOvercast.22 mph86%29.75 "HgN/A
10:30 PM
Aug 29
61 °FCool.24 mph91%29.78 "HgN/A
9:00 PM62 °FOvercast.32 mph86%29.80 "Hg4 mi
7:30 PM63 °FMild.30 mph79%29.82 "HgN/A
6:00 PM62 °FOvercast.30 mph78%29.81 "HgN/A
4:30 PM63 °FMild.33 mph73%29.81 "HgN/A
3:00 PM64 °FPartly sunny.31 mph78%29.80 "Hg9 mi
1:30 PM64 °FMild.31 mph74%29.82 "HgN/A
12:00 PM64 °FOvercast.18 mph75%29.85 "HgN/A
10:30 AM64 °FMild.26 mph72%29.87 "HgN/A
9:00 AM61 °FSprinkles. Partly sunny.25 mph85%29.89 "Hg9 mi
7:30 AM63 °FMild.21 mph77%29.88 "HgN/A
6:00 AM61 °FSprinkles. Passing clouds.18 mph87%29.86 "Hg9 mi
Weather by CustomWeather, © 2014

See weather overviewHow to use our weather pages